Pittsfield, MA

10:01 PM EST on November 12, 2019 (GMT -0500)
Pittsfield Municipal

Weather History for KPSF - July, 2019

Change the Weather History Date:

Wednesday, July 31, 2019

  Actual Average Record
Temperature  
Mean Temperature 72 °F 68 °F  
Max Temperature 79 °F 79 °F 97 °F (1933)
Min Temperature 65 °F 57 °F 42 °F (1964)
Degree Days  
Heating Degree Days 0 1  
Month to date heating degree days 0 31  
Since 1 June heating degree days 67 132  
Since 1 July heating degree days 0 31  
Cooling Degree Days 7 4  
Month to date cooling degree days 219 108  
Year to date cooling degree days 276 177  
Since 1 June cooling degree days 270 164  
Growing Degree Days 20 (Base 50)    
Moisture  
Dew Point 65 °F    
Average Humidity 75    
Maximum Humidity 93    
Minimum Humidity 56    
Precipitation  
Precipitation 0.06 in 0.18 in 1.63 in (2016)
Month to date precipitation 3.55 4.25  
Year to date precipitation 26.14 25.69  
Sea Level Pressure  
Sea Level Pressure 29.98 in    
Wind  
Wind Speed 4 mph (West)    
Max Wind Speed 20 mph    
Max Gust Speed 24 mph    
Visibility 9 miles    
Events Rain    
T = Trace of Precipitation, MM = Missing Value Source: NWS Daily Summary

Daily Weather History Graph

Daily Weather History Graph

Search for Another Location

Airport or City:

Astronomy

Jul. 31, 2019 Rise Set
Actual Time 5:44 AM EDT 8:14 PM EDT
Civil Twilight 5:12 AM EDT 8:46 PM EDT
Nautical Twilight 4:32 AM EDT 9:25 PM EDT
Astronomical Twilight 3:47 AM EDT 10:10 PM EDT
Moon 4:53 AM EDT (7/31) 8:12 PM EDT (7/31)
Length of Visible Light 15h 33m
Length of Day
14h 29m
Waning Crescent, 0% of the Moon is Illuminated
Jul 31
Waning Crescent
Jul 31
New
Aug 7
First Quarter
Aug 15
Full
Aug 23
Last Quarter

Hourly Weather History & Observations

Time (EDT) Temp. Dew Point Humidity Pressure Visibility Wind Dir Wind Speed Gust Speed Precip Events Conditions
12:54 AM 69.1 °F 64.9 °F 87% 29.93 in 10.0 mi Calm Calm - N/A   Clear
1:54 AM 69.1 °F 64.9 °F 87% 29.93 in 10.0 mi Calm Calm - N/A   Clear
2:54 AM 69.1 °F 64.9 °F 87% 29.93 in 10.0 mi Calm Calm - N/A   Clear
3:54 AM 68.0 °F 64.0 °F 87% 29.94 in 10.0 mi Calm Calm - N/A   Partly Cloudy
4:54 AM 66.9 °F 64.0 °F 90% 29.93 in 8.0 mi Calm Calm - N/A   Clear
5:54 AM 64.9 °F 63.0 °F 93% 29.96 in 4.0 mi Calm Calm - N/A   Partly Cloudy
6:54 AM 66.9 °F 64.0 °F 90% 29.96 in 6.0 mi Calm Calm - N/A   Partly Cloudy
7:54 AM 73.0 °F 64.9 °F 76% 29.96 in 10.0 mi Calm Calm - N/A   Clear
8:54 AM 73.9 °F 64.9 °F 73% 29.97 in 10.0 mi WNW 3.5 mph - N/A   Clear
9:54 AM 77.0 °F 66.0 °F 69% 29.98 in 10.0 mi NNW 5.8 mph - N/A   Partly Cloudy
10:54 AM 77.0 °F 64.9 °F 66% 29.99 in 10.0 mi West 8.1 mph - N/A   Mostly Cloudy
11:54 AM 75.9 °F 66.0 °F 71% 29.99 in 10.0 mi West 8.1 mph - N/A   Overcast
12:54 PM 70.0 °F 63.0 °F 78% 30.03 in 6.0 mi West 10.4 mph - 0.02 in Rain Light Rain
1:54 PM 72.0 °F 66.0 °F 81% 29.99 in 10.0 mi West 5.8 mph - 0.04 in   Mostly Cloudy
2:28 PM 71.1 °F 66.0 °F 84% 30.06 in 10.0 mi WNW 6.9 mph - 0.00 in   Overcast
2:40 PM 72.0 °F 66.0 °F 81% 30.06 in 10.0 mi Calm Calm - 0.00 in   Overcast
2:54 PM 73.0 °F 66.0 °F 79% 29.99 in 10.0 mi NW 3.5 mph - 0.00 in   Mostly Cloudy
3:54 PM 77.0 °F 64.0 °F 64% 29.96 in 10.0 mi Variable 4.6 mph - N/A   Scattered Clouds
4:54 PM 77.0 °F 61.0 °F 58% 29.97 in 10.0 mi West 3.5 mph - N/A   Overcast
5:54 PM 75.9 °F 63.0 °F 64% 29.97 in 10.0 mi WNW 6.9 mph - N/A   Partly Cloudy
6:54 PM 75.0 °F 64.0 °F 69% 29.97 in 10.0 mi WNW 3.5 mph - N/A   Clear
7:54 PM 73.9 °F 64.9 °F 73% 29.96 in 10.0 mi West 4.6 mph - N/A   Clear
8:54 PM 71.1 °F 66.0 °F 84% 29.98 in 10.0 mi WSW 4.6 mph - N/A   Clear
9:54 PM 69.1 °F 64.9 °F 87% 29.98 in 10.0 mi West 4.6 mph - N/A   Clear
10:54 PM 68.0 °F 64.0 °F 87% 29.98 in 10.0 mi West 5.8 mph - N/A   Clear
11:54 PM 70.0 °F 64.0 °F 81% 29.99 in 10.0 mi West 6.9 mph - N/A   Clear